Cozumel (Civ/Mil, Mexico

10:52 AM on January 17, 2017 (GMT +0000)
Cozumel International

Weather History for MMCZ - October, 2014

Change the Weather History Date:

Monday, October 6, 2014

  Actual Average Record
Temperature  
Mean Temperature 76 °F -  
Max Temperature 84 °F 87 °F 93 °F (1998)
Min Temperature 69 °F 76 °F 68 °F (2010)
Cooling Degree Days 12    
Growing Degree Days 26 (Base 50)    
Moisture  
Dew Point 73 °F    
Average Humidity 94    
Maximum Humidity 100    
Minimum Humidity 74    
Precipitation  
Precipitation 0.00 in - - ()
Sea Level Pressure  
Sea Level Pressure 29.94 in    
Wind  
Wind Speed 4 mph ()    
Max Wind Speed 15 mph    
Max Gust Speed 26 mph    
Visibility 7.2 miles    
Events      
Averages and records for this station are not official NWS values.
T = Trace of Precipitation, MM = Missing Value Source: Averaged Metar Reports

Daily Weather History Graph

Daily Weather History Graph

Search for Another Location

Airport or City:

Trip Planner

Search our weather history database for the weather conditions in past years. The results will help you decide how hot, cold, wet, or windy it might be!

Date:

Astronomy

Oct. 06, 2014 Rise Set
Actual Time 6:40 AM CDT 6:31 PM CDT
Civil Twilight 6:17 AM CDT 6:53 PM CDT
Nautical Twilight 5:52 AM CDT 7:18 PM CDT
Astronomical Twilight 5:26 AM CDT 7:44 PM CDT
Moon 5:16 PM CDT (10/6) 4:41 AM CDT (10/6)
Length of Visible Light 12h 35m
Length of Day
11h 51m
Waxing Gibbous, 96% of the Moon is Illuminated
Oct 6
Waxing Gibbous
Oct 8
Full
Oct 15
Last Quarter
Oct 23
New
Oct 30
First Quarter

Hourly Weather History & Observations

Time (CDT) Temp. Heat Index Dew Point Humidity Pressure Visibility Wind Dir Wind Speed Gust Speed Precip Events Conditions
12:52 AM 69.8 °F - 69.8 °F 100% 29.91 in 7.0 mi Calm Calm - N/A   Partly Cloudy
2:09 AM 69.8 °F - 69.8 °F 100% 29.92 in 7.0 mi Calm Calm - N/A   Partly Cloudy
2:48 AM 69.8 °F - 69.8 °F 100% 29.91 in 7.0 mi Calm Calm - N/A   Partly Cloudy
3:43 AM 69.8 °F - 69.8 °F 100% 29.92 in 7.0 mi Calm Calm - N/A   Partly Cloudy
4:48 AM 69.8 °F - 69.8 °F 100% 29.89 in 7.0 mi Calm Calm - N/A   Partly Cloudy
5:45 AM 69.8 °F - 69.8 °F 100% 29.91 in 7.0 mi Calm Calm - N/A   Partly Cloudy
6:42 AM 69.8 °F - 69.8 °F 100% 29.90 in 7.0 mi ESE 3.5 mph - N/A   Scattered Clouds
7:42 AM 71.6 °F - 71.6 °F 100% 29.94 in 7.0 mi Calm Calm - N/A   Mostly Cloudy
8:46 AM 71.6 °F - 71.6 °F 100% 29.96 in 8.0 mi NE 4.6 mph - N/A   Mostly Cloudy
9:52 AM 80.6 °F 86.2 °F 75.2 °F 84% 29.99 in 8.0 mi ESE 8.1 mph - N/A   Mostly Cloudy
10:45 AM 82.4 °F 90.9 °F 77.0 °F 84% 29.97 in 8.0 mi ESE 6.9 mph - N/A   Mostly Cloudy
11:40 AM 84.2 °F 92.3 °F 75.2 °F 74% 29.97 in 8.0 mi East 13.8 mph - N/A   Mostly Cloudy
12:40 PM 82.4 °F 89.5 °F 75.2 °F 79% 29.94 in 8.0 mi ESE 12.7 mph - N/A   Mostly Cloudy
1:42 PM 80.6 °F 86.2 °F 75.2 °F 84% 29.94 in 6.0 mi ESE 15.0 mph 26.5 mph N/A   Mostly Cloudy
2:51 PM 80.6 °F 86.2 °F 75.2 °F 84% 29.92 in 7.0 mi ESE 12.7 mph - N/A   Mostly Cloudy
3:45 PM 78.8 °F - 75.2 °F 89% 29.94 in 7.0 mi East 10.4 mph - N/A   Mostly Cloudy
4:52 PM 80.6 °F 86.2 °F 75.2 °F 84% 29.92 in 7.0 mi ESE 11.5 mph - N/A   Mostly Cloudy
5:44 PM 78.8 °F - 77.0 °F 94% 29.92 in 7.0 mi ESE 8.1 mph - N/A   Mostly Cloudy
6:47 PM 77.0 °F - 75.2 °F 94% 29.91 in 7.0 mi East 4.6 mph - N/A   Mostly Cloudy
7:43 PM 73.4 °F - 73.4 °F 100% 29.94 in 7.0 mi ESE 4.6 mph - N/A   Mostly Cloudy
8:41 PM 73.4 °F - 73.4 °F 100% 29.95 in 7.0 mi SE 4.6 mph - N/A   Mostly Cloudy
9:50 PM 73.4 °F - 73.4 °F 100% 30.01 in 7.0 mi ESE 4.6 mph - N/A   Scattered Clouds
10:44 PM 73.4 °F - 73.4 °F 100% 29.99 in 7.0 mi East 3.5 mph - N/A   Partly Cloudy
11:47 PM 73.4 °F - 73.4 °F 100% 29.97 in 7.0 mi ESE 3.5 mph - N/A   Clear